Regional Weather Roundup
Issued by NWS

Home | Current Version | Previous Version | Graphics & Text | Print | Product List | Glossary On
Versions: 1 2 3 4 5 6 7 8 9 10 11 12 13 14 15 16 17 18 19 20 21 22 23 24 25 26 27 28 29 30 31 32 33 34 35 36 37 38 39 40 41 42 43 44 45 46 47 48 49 50
000
ASUS45 KTFX 220019
RWRMT
MONTANA HOURLY WEATHER ROUNDUP
NATIONAL WEATHER SERVICE GREAT FALLS MT
619 PM MDT MON JUL 21 2014

NOTE: "FAIR" INDICATES FEW OR NO CLOUDS BELOW 12000 FEET WITH NO
SIGNIFICANT WEATHER AND/OR OBSTRUCTIONS TO VISIBILITY.

* THESE STATIONS ARE NOT UNDER NWS QUALITY CONTROL. THEY DO NOT
   REPORT WEATHER SUCH AS PRECIPITATION OR FOG.

MTZ001>007-043-220100-
WEST OF THE DIVIDE
CITY           SKY/WX    TMP DP  RH WIND       PRES   REMARKS
KALISPELL      CLEAR     81  36  20 W6        29.97R
MISSOULA       PTCLDY    82  30  15 NW16G25   29.98S
BUTTE          CLOUDY    72  46  40 CALM      30.10S
MULLAN PASS    PTCLDY    61  36  39 CALM      30.16S
* ESSEX        N/A       74  37  26 N1G8       N/A
* LINCOLN      N/A       78  40  26 SW6G17     N/A
* LOOKOUT PASS N/A       68  36  31 SE6        N/A
* POLSON       N/A       78  38  24 SW3G9      N/A
* RONAN APT    PTCLDY    79  48  34 N/A        N/A
* SEELEY LAKE  N/A       78  30  17 NW10G19    N/A
* THOMP F APT  PTCLDY    76  42  30 NW5G21     N/A
* YAAK HILL    N/A       80  40  24 SW1        N/A
$$

MTZ008-052>055-220100-
SOUTHWEST MONTANA
CITY           SKY/WX    TMP DP  RH WIND       PRES   REMARKS
BOZEMAN        CLOUDY    77  55  47 N16       30.03S
DILLON         CLOUDY    72  48  43 SW10      30.07S
* THREE FORKS  CLOUDY    75  72  90 N/A        N/A
* BOULDER HILL N/A       73  43  34 SW6G11     N/A
* MONIDA PASS  N/A       72  41  33 NW12G17    N/A
* RAYNOLDS PAS N/A       70  13  11 VRB7       N/A
* WHITEHALL    N/A       72  58  62 E3G8       N/A
* WISE RIVER   N/A       69  57  66 W2         N/A
$$

MTZ009>010-012-014-046-048-049-054-220100-
EAST SLOPES AND CENTRAL MONTANA
CITY           SKY/WX    TMP DP  RH WIND       PRES   REMARKS
CUT BANK       CLEAR     77  37  24 W10       30.00R
GREAT FALLS    CLEAR     81  43  26 NW14G23   29.97R
HELENA         PTCLDY    86  45  24 W12       29.96S
MALMSTROM AFB  PTCLDY    82  43  25 W14       29.97S
* CONRAD       CLEAR     79  46  31 SW8        N/A
* DEARBORN     N/A       84  42  23 SW9G16     N/A
* EAST GLACIER N/A       69  37  31 NW11G20    N/A
* MONARCH      N/A       74  39  28 NW14G26    N/A
* ROGERS PASS  N/A       73  34  24 W4G17      N/A
* SAINT MARY   N/A       74  39  28 SW7G16     N/A
* SWEET GRASS  N/A       73  51  46 NE15       N/A
* WHITE SULPH  N/A       70  54  57 S10        N/A
$$

MTZ011-013-016-021-035-040-045-047-050-051-220100-
NORTH CENTRAL MONTANA
CITY           SKY/WX    TMP DP  RH WIND       PRES   REMARKS
HAVRE          PTCLDY    84  43  24 W15       29.92R
LEWISTOWN      CLOUDY    72  59  64 E9        30.02S
* FORT BENTON  PTCLDY    84  45  26 W10G17    29.94R
* CHESTER      N/A       79  47  32 W8G16      N/A
* DENTON       N/A       75  53  46 SE10       N/A
* GEYSER       N/A       80  45  29 NW17       N/A
* JUDITH GAP   N/A       67  60  78 SE9        N/A
* LOMA         N/A       83  46  27 W11G21     N/A
$$

MTZ017>020-022>027-061-062-220100-
NORTHEAST MONTANA
CITY           SKY/WX    TMP DP  RH WIND       PRES   REMARKS
GLASGOW        MOCLDY    79  48  34 N8        29.93R
GLENDIVE       PTCLDY    81  55  41 N14       29.94R HI  81
JORDAN         MOCLDY    81  52  37 VRB5      29.95R
SIDNEY         MOCLDY    75  63  66 NE12      29.93R
WOLF POINT     CLOUDY    81  55  41 NE15G21   29.91S HI  81
* BEAVER HILL  N/A       78  56  47 VRB19G25    N/A
* CIRCLE       N/A       77  60  56 NE9G16     N/A
* LINDSAY DVD  N/A       77  59  54 VRB9       N/A
* NAVAJO       N/A       73  62  69 E7         N/A
$$

MTZ028>042-056>058-220100-
SOUTHCENTRAL AND SOUTHEAST MONTANA
CITY           SKY/WX    TMP DP  RH WIND       PRES   REMARKS
BAKER          MOCLDY    81  61  51 N10       29.93R HI  82
BILLINGS       CLOUDY    70  52  53 N22G32    30.01R
LIVINGSTON     CLOUDY    75  48  39 SW18G29   30.05R
MILES CITY     PTCLDY    86  55  35 NE9       29.91S
* LAUREL APT   CLOUDY    75  50  42 SW7        N/A
* ROUNDUP APT  CLOUDY    70  55  59 W23G28     N/A
* ALZADA       N/A       87  51  29 NW14G22    N/A
* HYSHAM       N/A       80  52  38 W2         N/A
* LAME DEER    N/A       80  54  41 N7         N/A   HI  80
* REED POINT   N/A       76  54  47 NW7        N/A
* ROSCOE HILL  N/A       70  45  41 SW7G16     N/A
$$

REGIONAL REPORTS...DAKOTAS
CITY           SKY/WX    TMP DP  RH WIND       PRES   REMARKS
WILLISTON      CLOUDY    75  61  62 N15       29.90F
DICKINSON      MOCLDY    73  64  74 NW17      29.87R
CROSBY         MOCLDY    68  66  93 CALM      29.91F
TIOGA          PTCLDY    68  68 100 NE12      29.94R
WATFORD CITY   PTCLDY    72  64  76 NE13G18   29.90R
BISMARCK       LGT RAIN  70  64  81 NE17      29.77R
GRAND FORKS    TSTM      86  75  70 NE12      29.62F HI  95
FARGO          LGT RAIN  88  75  65 S13       29.69S HI  98
BUFFALO SD     CLEAR     86  61  43 NW18      29.82R HI  86
RAPID CITY     PTCLDY    90  55  31 N7        29.86S
$$

REGIONAL REPORTS...WYOMING/IDAHO/WASHINGTON
CITY           SKY/WX    TMP DP  RH WIND       PRES   REMARKS
GILLETTE       PTCLDY    84  52  33 N14       29.98R
SHERIDAN       PTCLDY    84  55  37 VRB5      29.98F
CODY           MOCLDY   N/A N/A N/A N16       30.05R
YELLOWSTONE LA MOCLDY    59  45  60 N/A       30.33R
SALMON         MOCLDY    82  48  31 S13       29.96F
MULLAN PASS    PTCLDY    61  36  39 CALM      30.16S
SAND POINT     PTCLDY    73  46  38 S8        30.01F
SPOKANE        MOCLDY    77  39  26 E5        29.99F
$$

REGIONAL REPORTS...ALBERTA
CITY           SKY/WX    TMP DP  RH WIND       PRES   REMARKS
CALGARY        MOCLDY    68  50  53 VRB3      30.02R
LETHBRIDGE     FAIR      70  57  64 NE9G21    29.99R
MEDICINE HAT   FAIR      72  50  46 N12G21    29.98R
EDMONTON       PTCLDY    72  52  49 S6        29.97R
WATERTON GATE  N/A       70  54  57 NW10G18    N/A
CARDSTON       N/A       73  57  57 NE3        N/A
MILK RIVER     N/A       75  50  42 N12        N/A
$$

REGIONAL REPORTS...SASKATCHEWAN
CITY           SKY/WX    TMP DP  RH WIND       PRES   REMARKS
SWIFT CURRENT  TSTM      63  59  87 W12       29.95R
MOOSE JAW      PTCLDY    70  61  73 E7        29.94F
REGINA         FAIR      70  55  59 N9        29.94F
VAL MARIE      N/A       75  55  50 W3         N/A
ASSINIBOIA     N/A       70  57  64 SE5        N/A
CORONACH       N/A       73  61  66 SW1        N/A

$$




USA.gov is the U.S. government's official web portal to all federal, state and local government web resources and services.